sat.trackr.live / text

‹ back to catalog

TANDEM-X

NORAD 36605 · 2010-030A

PAYLOAD ACTIVE UNKNOWN

§ Identity

Operator
Country
GER
Launch date
2010-06-21
Launch site
TYMSC
Launch vehicle
Mass (kg)
RCS (m²)
2.49

Purposes: earth_obs

External: N2YO · Heavens-Above · Gunter

§ Orbital elements

Epoch: 2026-09-08T10:46:56.372448Z

Period
94.79 min
Inclination
97.4473°
Eccentricity
0.0001770
Mean motion
15.19147717 rev/d
Perigee alt
507.2 km
Apogee alt
509.6 km
Semi-major
6,886.6 km
B*
1.6475e-5
RAAN
257.9767°
Arg perigee
97.7578°
Mean anomaly
262.3858°
Rev number
89,928

§ Raw data

TANDEM-X1 36605U 10030A   26251.44926357  .00000279  00000+0  16475-4 0  99942 36605  97.4473 257.9767 0001770  97.7578 262.3858 15.19147717899280

JSON: /api/v1/satellites/36605 · /tle

For live sub-satellite position, see the globe view (requires WebGL).

§ Visibility from observer

Set your observer location to see the next 7 days of passes ≥ 10°. The values pass through the URL so the page stays shareable.

No JS? Fill the form by hand. The geolocation button needs JavaScript.

§ Radio — SatNOGS DB

ModeDescriptionDownlinkUplink
FM S-band telemetry 2.280 GHz
FM S-band telemetry 2.268 GHz

2 transmitters · refreshed weekly from db.satnogs.org